Location: Helensbirgh
(56.0153°N, 4.7348°W)
Time: 20:31:43
(UTC+00:00)

N. Korean satellite - Pass Details

Date: 31 October 2019
Orbit: 456 x 506 km, 97.2° (Epoch: 10 November)

Event Time Altitude Azimuth Distance (km) Brightness Sun altitude
Rises 18:37:09 0° 218° (SW) 2,499 10.8 -16.5°
Reaches altitude 10° 18:40:20 10° 251° (WSW) 1,642 10.4 -17.0°
Maximum altitude 18:41:45 12° 274° (W) 1,531 10.3 -17.2°
Drops below altitude 10° 18:43:11 10° 298° (WNW) 1,659 10.2 -17.4°
Sets 18:46:27 0° 331° (NNW) 2,560 10.7 -17.8°
